Tracking 35030 objects as of 11-Aug-2026
HD Live streaming from Space Station
objects crossing your sky now

STARLINK-3727

Track STARLINK-3727 now!
10-day predictions
STARLINK-3727 is classified as:


NORAD ID: 52125
Int'l Code: 2022-029AP
Launch date: March 19, 2022
Source: United States (US)
Launch site: AIR FORCE EASTERN TEST RANGE (AFETR)
Your satellite tracking list
Your tracking list is empty




NASA's NSSDC Master Catalog

Two Line Element Set (TLE):
1 52125U 22029AP  26222.89674048 -.00000707  00000-0 -26349-4 0  9994
2 52125  53.1601  96.4340 0001311  84.7779 275.3362 15.08827773244216
Source of the keplerian elements: AFSPC